EW7337 Weather Reports


Display with metric or nautical units.
time (UTC)temp
F
wind
direction
speed
MPH
gust
MPH
rain 1hr
in
rain 24hr
in
rain mn
in
humidity
%
barometer
mb
20260509223908 57 273 1.0 7.0 0.00 0.00 0.00 83 1029.9
20260509223402 56 261 1.0 7.0 0.00 0.00 0.00 85 1030.0
20260509222907 56 277 2.0 4.0 0.00 0.00 0.00 86 1030.0
20260509222403 56 271 1.0 7.0 0.00 0.00 0.00 87 1029.9
20260509221914 55 276 2.0 7.0 0.00 0.00 0.00 89 1029.9
20260509221406 54 277 2.0 4.0 0.00 0.00 0.00 90 1029.8
20260509221250 54 281 1.0 4.0 0.00 0.00 0.00 91 1029.8
20260509220405 53 286 2.0 4.0 0.00 0.00 0.00 91 1029.7
20260509215910 53 285 2.0 4.0 0.00 0.00 0.00 92 1029.8
20260509215405 52 278 1.0 3.0 0.00 0.00 0.00 92 1029.7
20260509214906 52 286 2.0 4.0 0.00 0.00 0.00 93 1029.6
20260509214402 51 290 2.0 4.0 0.00 0.00 0.00 93 1029.6
20260509214248 51 281 0.0 2.0 0.00 0.00 0.00 93 1029.5
20260509213403 51 277 0.0 2.0 0.00 0.00 0.00 93 1029.4
20260509213238 50 277 1.0 3.0 0.00 0.00 0.00 92 1029.5
20260509212407 50 267 1.0 3.0 0.00 0.00 0.00 92 1029.3
20260509211913 50 284 0.0 6.0 0.00 0.00 0.00 92 1029.1
20260509211402 50 277 1.0 6.0 0.00 0.00 0.00 92 1029.2
20260509210906 50 286 2.0 4.0 0.00 0.00 0.00 92 1029.0
20260509210404 50 279 2.0 3.0 0.00 0.00 0.00 92 1028.9
20260509205911 49 300 2.0 3.0 0.00 0.00 0.00 92 1028.9
20260509205408 49 302 1.0 2.0 0.00 0.00 0.00 92 1029.0
20260509204909 49 279 1.0 2.0 0.00 0.00 0.00 92 1028.9
20260509204407 49 278 0.0 0.0 0.00 0.00 0.00 92 1028.9
20260509203915 49 278 0.0 1.0 0.00 0.00 0.00 92 1028.8
20260509203749 49 278 0.0 2.0 0.00 0.00 0.00 92 1028.8
20260509202909 49 278 0.0 2.0 0.00 0.00 0.00 92 1028.7
20260509202840 49 278 1.0 2.0 0.00 0.00 0.00 92 1028.6
20260509201907 49 267 0.0 1.0 0.00 0.00 0.00 91 1028.6
20260509201409 49 267 0.0 1.0 0.00 0.00 0.00 91 1028.5
20260509200909 49 275 0.0 2.0 0.00 0.00 0.00 91 1028.6
20260509200749 49 275 1.0 3.0 0.00 0.00 0.00 91 1028.4
20260509195906 49 275 2.0 3.0 0.00 0.00 0.00 91 1028.4
20260509195408 49 274 1.0 3.0 0.00 0.00 0.00 91 1028.2
20260509194907 49 297 1.0 2.0 0.00 0.00 0.00 91 1028.1
20260509194408 49 297 0.0 2.0 0.00 0.00 0.00 91 1027.9
20260509194257 49 297 0.0 1.0 0.00 0.00 0.00 91 1027.9
20260509193355 50 297 0.0 2.0 0.00 0.00 0.00 91 1027.8
20260509192852 50 297 0.0 2.0 0.00 0.00 0.00 91 1027.8
20260509192350 50 297 1.0 2.0 0.00 0.00 0.00 91 1027.7
20260509191846 50 297 1.0 2.0 0.00 0.00 0.00 91 1027.7
20260509191343 50 297 0.0 1.0 0.00 0.00 0.00 91 1027.6
20260509190836 50 297 0.0 2.0 0.00 0.00 0.00 91 1027.6
20260509190336 50 297 0.0 2.0 0.00 0.00 0.00 91 1027.5
20260509185330 50 297 1.0 2.0 0.00 0.00 0.00 91 1027.5
20260509184333 50 297 0.0 1.0 0.00 0.00 0.00 91 1027.3
20260509184221 50 297 0.0 3.0 0.00 0.00 0.00 91 1027.3
20260509183333 50 297 1.0 3.0 0.00 0.00 0.00 91 1027.3
20260509182833 49 290 1.0 4.0 0.00 0.00 0.00 91 1027.3
20260509182405 49 302 1.0 4.0 0.00 0.00 0.00 91 1027.3
20260509181834 49 298 1.0 3.0 0.00 0.00 0.00 91 1027.1
20260509181336 49 281 0.0 3.0 0.00 0.00 0.00 90 1027.1
20260509180827 49 277 2.0 4.0 0.00 0.00 0.00 90 1027.1
20260509180324 49 283 2.0 4.0 0.00 0.00 0.00 90 1027.2
20260509175343 49 295 0.0 0.0 0.00 0.00 0.00 90 1027.3
20260509174819 49 295 0.0 0.0 0.00 0.00 0.00 90 1027.4
20260509174319 49 295 0.0 0.0 0.00 0.00 0.00 90 1027.3
20260509174251 50 295 0.0 0.0 0.00 0.00 0.00 90 1027.2
20260509174245 50 295 0.0 0.0 0.00 0.00 0.00 90 1027.2
20260509173842 50 295 0.0 0.0 0.00 0.00 0.00 90 1027.2
20260509172319 50 295 0.0 1.0 0.00 0.00 0.00 90 1027.1
20260509172156 50 295 0.0 1.0 0.00 0.00 0.00 90 1027.1
20260509171304 50 295 0.0 2.0 0.00 0.00 0.00 90 1027.1
20260509170805 50 295 0.0 2.0 0.00 0.00 0.00 90 1027.1
20260509170554 50 295 0.0 0.0 0.00 0.00 0.00 89 1027.2
20260509170431 50 295 0.0 2.0 0.00 0.00 0.00 90 1027.2
20260509165311 50 295 0.0 0.0 0.00 0.00 0.00 89 1027.2
20260509164810 50 295 0.0 0.0 0.00 0.00 0.00 89 1027.2
20260509164645 50 295 0.0 0.0 0.00 0.00 0.00 89 1027.1
20260509163822 50 295 0.0 0.0 0.00 0.00 0.00 89 1027.1
20260509163310 50 295 0.0 1.0 0.00 0.00 0.00 89 1027.2
20260509162805 50 295 0.0 1.0 0.00 0.00 0.00 89 1027.2
20260509162523 50 295 0.0 1.0 0.00 0.00 0.00 89 1027.1
20260509162518 50 295 0.0 1.0 0.00 0.00 0.00 89 1027.2
20260509162412 50 295 0.0 1.0 0.00 0.00 0.00 89 1027.2
20260509160804 51 295 0.0 2.0 0.00 0.00 0.00 89 1027.2
20260509160304 51 295 0.0 2.0 0.00 0.00 0.00 89 1027.3
20260509155807 51 295 1.0 2.0 0.00 0.00 0.00 89 1027.3
20260509155309 51 295 1.0 2.0 0.00 0.00 0.00 89 1027.2
20260509154809 51 295 0.0 2.0 0.00 0.00 0.00 89 1027.2
20260509154644 51 295 1.0 2.0 0.00 0.00 0.00 89 1027.1
20260509153807 51 287 0.0 2.0 0.00 0.00 0.00 88 1027.2
20260509153306 51 283 0.0 2.0 0.00 0.00 0.00 88 1027.2
20260509152809 51 283 0.0 2.0 0.00 0.00 0.00 88 1027.3
20260509152307 51 282 1.0 2.0 0.00 0.00 0.00 88 1027.4
20260509151809 51 284 1.0 2.0 0.00 0.00 0.00 88 1027.4
20260509151308 51 240 0.0 1.0 0.00 0.00 0.00 88 1027.4
20260509150812 51 240 0.0 0.0 0.00 0.00 0.00 88 1027.2
20260509150307 51 240 0.0 0.0 0.00 0.00 0.00 88 1027.3
20260509145811 51 240 0.0 0.0 0.00 0.00 0.00 88 1027.4
20260509145308 51 240 0.0 0.0 0.00 0.00 0.00 88 1027.3
20260509144655 52 240 0.0 0.0 0.00 0.00 0.00 87 1027.3
20260509143812 52 240 0.0 0.0 0.00 0.00 0.00 87 1027.1
20260509143316 52 240 0.0 0.0 0.00 0.00 0.00 87 1027.3
20260509142812 52 240 0.0 0.0 0.00 0.00 0.00 87 1027.2
20260509142306 52 240 0.0 1.0 0.00 0.00 0.00 87 1027.2
20260509141807 52 240 0.0 1.0 0.00 0.00 0.00 87 1027.2
20260509141302 52 240 0.0 0.0 0.00 0.00 0.00 87 1027.2
20260509141147 52 240 0.0 0.0 0.00 0.00 0.00 87 1027.1
20260509140307 52 240 0.0 0.0 0.00 0.00 0.00 86 1027.2
20260509135811 52 240 0.0 0.0 0.00 0.00 0.00 86 1027.2
20260509135306 52 240 0.0 0.0 0.00 0.00 0.00 86 1027.1
20260509135251 52 240 0.0 0.0 0.00 0.00 0.00 86 1027.2
20260509134309 52 240 0.0 0.0 0.00 0.00 0.00 86 1027.2
20260509133827 53 240 0.0 1.0 0.00 0.00 0.00 86 1027.2
20260509133444 53 240 0.0 0.0 0.00 0.00 0.00 86 1027.2
20260509133352 53 240 0.0 1.0 0.00 0.00 0.00 86 1027.3
20260509131812 53 240 0.0 1.0 0.00 0.00 0.00 86 1027.2
20260509131306 53 240 0.0 1.0 0.00 0.00 0.00 86 1027.2
20260509130808 53 240 0.0 0.0 0.00 0.00 0.00 85 1027.3
20260509130310 53 240 0.0 0.0 0.00 0.00 0.00 85 1027.3
20260509130154 53 240 0.0 0.0 0.00 0.00 0.00 85 1027.2
20260509125646 53 240 0.0 0.0 0.00 0.00 0.00 85 1027.2
20260509124809 53 240 0.0 0.0 0.00 0.00 0.00 85 1027.1
20260509124306 53 240 0.0 1.0 0.00 0.00 0.00 85 1027.2
20260509123808 54 240 0.0 1.0 0.00 0.00 0.00 85 1027.2
20260509123306 54 269 0.0 0.0 0.00 0.00 0.00 85 1027.2
20260509122808 54 269 0.0 0.0 0.00 0.00 0.00 85 1027.2
20260509122306 54 269 0.0 1.0 0.00 0.00 0.00 85 1027.3
20260509121807 54 269 0.0 1.0 0.00 0.00 0.00 85 1027.3
20260509121304 54 269 0.0 1.0 0.00 0.00 0.00 85 1027.3
20260509120805 54 116 0.0 0.0 0.00 0.00 0.00 84 1027.3
20260509120304 54 116 0.0 0.0 0.00 0.00 0.00 84 1027.4
20260509115805 54 116 0.0 0.0 0.00 0.00 0.00 84 1027.2
20260509115307 54 116 0.0 0.0 0.00 0.00 0.00 84 1027.3
20260509114812 54 116 0.0 0.0 0.00 0.00 0.00 83 1027.4
20260509114658 54 116 0.0 0.0 0.00 0.00 0.00 83 1027.3
20260509113746 55 116 0.0 0.0 0.00 0.00 0.00 83 1027.3
20260509113244 55 116 0.0 0.0 0.00 0.00 0.00 83 1027.2
20260509112740 55 116 0.0 0.0 0.00 0.00 0.00 83 1027.2
20260509112618 55 116 0.0 0.0 0.00 0.00 0.00 83 1027.3
20260509111734 55 116 0.0 0.0 0.00 0.00 0.00 82 1027.2
20260509111238 55 116 0.0 0.0 0.00 0.00 0.00 82 1027.2
20260509110735 55 116 0.0 0.0 0.00 0.00 0.00 82 1027.3
20260509105231 56 116 0.0 0.0 0.00 0.00 0.00 81 1027.1
20260509105128 56 116 0.0 0.0 0.00 0.00 0.00 80 1027.2
20260509103733 56 116 0.0 0.0 0.00 0.00 0.00 79 1027.1
20260509103234 56 116 0.0 0.0 0.00 0.00 0.00 79 1027.2
20260509102732 56 116 0.0 0.0 0.00 0.00 0.00 79 1027.2
20260509102232 56 116 0.0 0.0 0.00 0.00 0.00 78 1027.0
20260509101735 57 116 0.0 0.0 0.00 0.00 0.00 78 1027.0
20260509101234 57 116 0.0 1.0 0.00 0.00 0.00 77 1027.1
20260509100734 57 116 0.0 1.0 0.00 0.00 0.00 77 1027.0
20260509100635 57 116 0.0 1.0 0.00 0.00 0.00 77 1026.8
20260509095733 57 116 0.0 1.0 0.00 0.00 0.00 76 1026.9
20260509095238 58 116 0.0 1.0 0.00 0.00 0.00 76 1026.9
20260509094746 58 116 0.0 0.0 0.00 0.00 0.00 75 1026.8
20260509094233 58 116 0.0 0.0 0.00 0.00 0.00 75 1026.8
20260509093731 58 116 0.0 0.0 0.00 0.00 0.00 75 1026.8
20260509093231 58 116 0.0 1.0 0.00 0.00 0.00 74 1026.6
20260509092232 59 116 0.0 0.0 0.00 0.00 0.00 73 1026.6
20260509090219 60 116 0.0 0.0 0.00 0.00 0.00 72 1026.4
20260509085705 60 116 0.0 0.0 0.00 0.00 0.00 71 1026.3
20260509085208 60 116 0.0 0.0 0.00 0.00 0.00 70 1026.3
20260509084724 60 116 0.0 0.0 0.00 0.00 0.00 70 1026.2
20260509084205 60 116 0.0 0.0 0.00 0.00 0.00 69 1026.2
20260509083706 60 116 0.0 0.0 0.00 0.00 0.00 68 1026.3
20260509083205 61 116 0.0 0.0 0.00 0.00 0.00 67 1026.1
20260509082705 61 116 0.0 0.0 0.00 0.00 0.00 67 1026.0
20260509082211 61 116 0.0 0.0 0.00 0.00 0.00 67 1026.0
20260509081709 62 116 0.0 0.0 0.00 0.00 0.00 67 1026.0
20260509081349 62 116 0.0 0.0 0.00 0.00 0.00 66 1025.8
20260509081256 62 116 0.0 0.0 0.00 0.00 0.00 67 1025.8
20260509080220 62 116 0.0 0.0 0.00 0.00 0.00 66 1025.8
20260509075707 63 116 0.0 0.0 0.00 0.00 0.00 66 1025.8
20260509075206 63 116 0.0 1.0 0.00 0.00 0.00 66 1025.7
20260509074705 63 116 0.0 1.0 0.00 0.00 0.00 66 1025.6
20260509074208 64 116 0.0 2.0 0.00 0.00 0.00 66 1025.5
20260509073706 64 119 0.0 2.0 0.00 0.00 0.00 65 1025.4
20260509073207 64 124 0.0 4.0 0.00 0.00 0.00 65 1025.4
20260509072711 64 101 0.0 4.0 0.00 0.00 0.00 64 1025.5
20260509072549 65 116 0.0 4.0 0.00 0.00 0.00 63 1025.3
20260509071710 65 110 0.0 4.0 0.00 0.00 0.00 63 1025.4
20260509071215 65 115 1.0 4.0 0.00 0.00 0.00 62 1025.3
20260509070711 65 113 1.0 4.0 0.00 0.00 0.00 62 1025.3
20260509070206 66 98 1.0 4.0 0.00 0.00 0.00 61 1025.2
20260509065700 66 111 0.0 4.0 0.00 0.00 0.00 61 1025.0
20260509065159 66 110 2.0 6.0 0.00 0.00 0.00 61 1024.9
20260509064657 66 119 0.0 6.0 0.00 0.00 0.00 61 1024.8
20260509064153 66 113 1.0 4.0 0.00 0.00 0.00 61 1024.8
20260509063655 67 122 1.0 3.0 0.00 0.00 0.00 60 1024.7
20260509063149 67 128 0.0 8.0 0.00 0.00 0.00 59 1024.6
20260509062647 67 121 1.0 8.0 0.00 0.00 0.00 59 1024.6
20260509062147 67 103 0.0 7.0 0.00 0.00 0.00 59 1024.6
20260509061645 68 150 2.0 7.0 0.00 0.00 0.00 59 1024.5
20260509061141 68 117 1.0 8.0 0.00 0.00 0.00 59 1024.5
20260509061047 68 169 2.0 8.0 0.00 0.00 0.00 58 1024.5
20260509060326 68 110 1.0 10.0 0.00 0.00 0.00 55 1024.3
20260509060319 68 169 1.0 7.0 0.00 0.00 0.00 55 1024.4
20260509060220 68 109 3.0 8.0 0.00 0.00 0.00 57 1024.4
20260509054637 69 169 1.0 10.0 0.00 0.00 0.00 55 1024.4
20260509054143 69 192 1.0 7.0 0.00 0.00 0.00 55 1024.3
20260509053637 69 126 3.0 8.0 0.00 0.00 0.00 55 1024.3
20260509053141 69 187 3.0 8.0 0.00 0.00 0.00 54 1024.3
20260509052133 69 103 2.0 9.0 0.00 0.00 0.00 54 1024.2
20260509051635 69 123 5.0 9.0 0.00 0.00 0.00 54 1024.1
20260509051559 69 92 3.0 9.0 0.00 0.00 0.00 53 1024.1
20260509050636 70 106 4.0 9.0 0.00 0.00 0.00 52 1024.1
20260509050135 70 169 2.0 7.0 0.00 0.00 0.00 52 1024.1
20260509045636 71 106 3.0 7.0 0.00 0.00 0.00 52 1024.1
20260509045133 70 125 2.0 8.0 0.00 0.00 0.00 52 1024.1
20260509045015 70 110 3.0 8.0 0.00 0.00 0.00 52 1024.1
20260509044555 71 131 3.0 7.0 0.00 0.00 0.00 51 1024.0
20260509043620 71 213 3.0 7.0 0.00 0.00 0.00 51 1024.0
20260509043118 71 175 4.0 7.0 0.00 0.00 0.00 50 1024.0
20260509042616 71 166 2.0 8.0 0.00 0.00 0.00 50 1024.0
20260509042108 71 101 2.0 7.0 0.00 0.00 0.00 50 1024.0
20260509041608 71 167 0.0 7.0 0.00 0.00 0.00 49 1024.0
20260509041102 71 119 2.0 9.0 0.00 0.00 0.00 50 1024.1
20260509040602 71 103 4.0 9.0 0.00 0.00 0.00 49 1024.1
20260509040104 71 50 3.0 8.0 0.00 0.00 0.00 50 1024.0
20260509035601 70 68 4.0 8.0 0.00 0.00 0.00 50 1024.0
20260509035056 71 108 5.0 8.0 0.00 0.00 0.00 50 1024.0
20260509034556 71 184 0.0 7.0 0.00 0.00 0.00 50 1023.9
20260509034521 71 164 2.0 9.0 0.00 0.00 0.00 51 1024.1
20260509033556 71 84 6.0 10.0 0.00 0.00 0.00 49 1024.1
20260509033050 71 117 3.0 10.0 0.00 0.00 0.00 50 1024.1
20260509032937 71 94 3.0 7.0 0.00 0.00 0.00 49 1024.2
20260509032050 71 202 2.0 7.0 0.00 0.00 0.00 49 1024.2
20260509031541 72 200 2.0 6.0 0.00 0.00 0.00 45 1024.2
20260509031108 71 242 0.0 5.0 0.00 0.00 0.00 47 1024.2
20260509030552 71 210 2.0 6.0 0.00 0.00 0.00 47 1024.2
20260509024927 70 219 0.0 7.0 0.00 0.00 0.00 47 1024.6
20260509024052 70 62 1.0 5.0 0.00 0.00 0.00 48 1024.6
20260509023536 70 125 1.0 9.0 0.00 0.00 0.00 48 1024.6
20260509023033 70 172 4.0 9.0 0.00 0.00 0.00 48 1024.8
20260509022534 70 213 0.0 5.0 0.00 0.00 0.00 49 1024.9
20260509022421 70 196 2.0 6.0 0.00 0.00 0.00 49 1024.9
20260509021533 69 275 0.0 6.0 0.00 0.00 0.00 52 1025.0
20260509021039 68 196 2.0 6.0 0.00 0.00 0.00 50 1025.1
20260509020538 69 263 1.0 6.0 0.00 0.00 0.00 51 1025.2
20260509020036 69 254 2.0 6.0 0.00 0.00 0.00 51 1025.2
20260509015928 68 213 2.0 9.0 0.00 0.00 0.00 52 1025.2
20260509015035 69 190 6.0 9.0 0.00 0.00 0.00 50 1025.4
20260509014538 69 155 4.0 8.0 0.00 0.00 0.00 52 1025.4
20260509014037 68 125 2.0 8.0 0.00 0.00 0.00 52 1025.4
20260509013926 68 196 2.0 8.0 0.00 0.00 0.00 53 1025.6
20260509013032 68 204 2.0 6.0 0.00 0.00 0.00 53 1025.6
20260509012533 68 178 2.0 6.0 0.00 0.00 0.00 53 1025.6
20260509012045 67 175 3.0 7.0 0.00 0.00 0.00 55 1025.6
20260509011543 67 202 4.0 7.0 0.00 0.00 0.00 52 1025.7
20260509011027 67 187 2.0 6.0 0.00 0.00 0.00 54 1025.5
20260509010524 67 227 1.0 5.0 0.00 0.00 0.00 55 1025.5
20260509010025 67 248 3.0 6.0 0.00 0.00 0.00 55 1025.4
20260509005520 66 219 1.0 6.0 0.00 0.00 0.00 56 1025.8
20260509005017 66 262 2.0 6.0 0.00 0.00 0.00 57 1025.9
20260509004511 66 224 3.0 6.0 0.00 0.00 0.00 58 1025.9
20260509004010 66 170 3.0 5.0 0.00 0.00 0.00 59 1025.8
20260509003510 65 174 3.0 6.0 0.00 0.00 0.00 57 1025.9
20260509003352 65 278 2.0 6.0 0.00 0.00 0.00 58 1025.9
20260509002509 65 234 1.0 7.0 0.00 0.00 0.00 60 1025.9
20260509002257 64 192 2.0 7.0 0.00 0.00 0.00 60 1025.8
20260509002141 65 236 4.0 7.0 0.00 0.00 0.00 60 1025.8
20260509001009 64 227 4.0 7.0 0.00 0.00 0.00 60 1025.8
20260509000956 64 223 2.0 3.0 0.00 0.00 0.00 61 1025.8
20260509000013 63 197 1.0 4.0 0.00 0.00 0.00 63 1025.8
20260508235858 63 274 1.0 9.0 0.00 0.00 0.00 62 1025.9
20260508235009 62 234 3.0 9.0 0.00 0.00 0.00 64 1026.0
20260508234505 62 279 2.0 8.0 0.00 0.00 0.00 63 1026.1
20260508234005 62 271 4.0 8.0 0.00 0.00 0.00 64 1026.1
20260508233504 62 277 3.0 4.0 0.00 0.00 0.00 64 1026.1
20260508233006 62 262 1.0 6.0 0.00 0.00 0.00 66 1026.0
20260508232506 61 190 3.0 6.0 0.00 0.00 0.00 66 1026.1
20260508232356 61 230 2.0 8.0 0.00 0.00 0.00 67 1026.1
20260508231519 60 259 4.0 9.0 0.00 0.00 0.00 67 1026.2
20260508231350 60 296 2.0 9.0 0.00 0.00 0.00 68 1026.1
20260508230509 60 259 4.0 8.0 0.00 0.00 0.00 68 1026.1
20260508230245 59 244 5.0 8.0 0.00 0.00 0.00 69 1026.1
20260508230135 60 261 6.0 8.0 0.00 0.00 0.00 68 1026.2
20260508225347 59 251 4.0 8.0 0.00 0.00 0.00 69 1026.1
20260508224508 59 274 3.0 6.0 0.00 0.00 0.00 70 1026.0